Location: Corralito
(10.2667°N, 66.9500°W)
Time: 17:27:53
(UTC+00:00)

Haruka - Pass Details

Date: 23 March 2023
Orbit: 513 x 21208 km, 31.2° (Epoch: 08 June)

Event Time Altitude Azimuth Distance (km) Brightness Sun altitude
Rises 23:11:59 0° 313° (NW) 2,603 6.6 -9.0°
Reaches altitude 10° 23:13:44 10° 321° (NW) 1,780 5.5 -9.5°
Maximum altitude 23:16:57 43° 36° (NE) 1,009 3.4 -10.3°
Enters shadow 23:22:48 13° 106° (ESE) 3,325 5.6 -11.7°
